User: anonymous   Login
Location: Unspecified
(0.0000°N, 0.0000°E)
Time: 14:14:50
(UTC+00:00)
Language:

PEGASUS DEB - Orbit

View from above orbital plane
View from above orbital plane
View from above satellite
View from above satellite

Ground track
Ground track

The orbit data is extracted from the following two-line orbital elements,

1 39315U 94029AFA 24053.55234795  .00003302  00000-0  10849-2 0  9991
2 39315  81.4995 359.1583 0417368 255.1986 100.2600 13.98479881543816
Epoch (UTC): 22 February 2024 13:15:22
Eccentricity: 0.0417368
inclination: 81.4995°
perigee height: 595 km
apogee height: 1203 km
right ascension of ascending node: 359.1583°
argument of perigee: 255.1986°
revolutions per day: 13.98479881
mean anomaly at epoch: 100.2600°
orbit number at epoch: 54381

The dashed part of the orbit path shows where the satellite is in the earth's shadow,  

DLR